Weather History for Goodland, KS

Change the Weather History Date:

Tuesday, April 23, 2013

  Actual Average Record
Temperature  
Mean Temperature 27 °F 52 °F  
Max Temperature 32 °F 66 °F 90 °F (1989)
Min Temperature 21 °F 37 °F 21 °F (2013)
Degree Days  
Heating Degree Days 38 14  
Month to date heating degree days 554 393  
Since 1 July heating degree days 5684 5568  
Cooling Degree Days 0 0  
Month to date cooling degree days 0 0  
Year to date cooling degree days 0 0  
Moisture  
Dew Point 20 °F    
Average Humidity 78    
Maximum Humidity 96    
Minimum Humidity 59    
Precipitation  
Precipitation 0.14 in 0.06 in 0.89 in (1913)
Month to date precipitation 0.73 1.15  
Year to date precipitation 3.03 3.09  
Snow  
Snow 3.10 in 0.10 in - ()
Month to date snowfall 12.7 3.7  
Since 1 July snowfall 55.7 34.5  
Snow Depth 9.00 in    
Sea Level Pressure  
Sea Level Pressure 30.27 in    
Wind  
Wind Speed 14 mph (NNW)    
Max Wind Speed 26 mph    
Max Gust Speed 31 mph    
Visibility 5 miles    
Events Snow    
T = Trace of Precipitation, MM = Missing Value Source: NWS Daily Summary

Daily Weather History Graph

Daily Weather History Graph

Search for Another Location

Airport:

Trip Planner

Search our weather history database for the weather conditions in past years. The results will help you decide how hot, cold, wet, or windy it might be!

Date:

Astronomy

Apr. 23, 2013 Rise Set
Actual Time 5:58 AM MDT 7:32 PM MDT
Civil Twilight 5:29 AM MDT 8:01 PM MDT
Nautical Twilight 4:55 AM MDT 8:35 PM MDT
Astronomical Twilight 4:19 AM MDT 9:11 PM MDT
Moon 5:30 PM MDT (4/23) 4:26 AM MDT (4/23)
Length of Visible Light 14h 31m
Length of Day
13h 34m
Waxing Gibbous, 94% of the Moon is Illuminated
Apr 23
Waxing Gibbous
Apr 25
Full
May 2
Last Quarter
May 9
New
May 17
First Quarter

Hourly Weather History & Observations

Time (MDT) Temp. Windchill Dew Point Humidity Pressure Visibility Wind Dir Wind Speed Gust Speed Precip Events Conditions
12:21 AM 24.8 °F 11.1 °F 21.2 °F 86% 30.25 in 1.5 mi North 18.4 mph 29.9 mph 0.01 in Snow Light Snow
12:28 AM 24.8 °F 10.3 °F 21.2 °F 86% 30.26 in 1.2 mi North 20.7 mph 27.6 mph 0.01 in   Overcast
12:44 AM 24.8 °F 10.0 °F 21.2 °F 86% 30.23 in 1.0 mi North 21.9 mph 27.6 mph 0.02 in   Mist
12:53 AM 24.1 °F 8.3 °F 21.0 °F 88% 30.30 in 1.2 mi North 24.2 mph - 0.02 in   Overcast
1:02 AM 24.8 °F 10.3 °F 21.2 °F 86% 30.23 in 1.8 mi North 20.7 mph - N/A   Overcast
1:10 AM 24.8 °F 10.0 °F 21.2 °F 86% 30.23 in 2.0 mi North 21.9 mph - N/A   Overcast
1:20 AM 23.0 °F 7.2 °F 21.2 °F 93% 30.22 in 1.5 mi North 23.0 mph 31.1 mph N/A   Overcast
1:53 AM 23.0 °F 10.1 °F 21.0 °F 92% 30.27 in 1.5 mi North 15.0 mph - N/A   Overcast
2:03 AM 23.0 °F 10.1 °F 21.2 °F 93% 30.21 in 1.8 mi North 15.0 mph - 0.01 in   Overcast
2:12 AM 24.8 °F 12.4 °F 21.2 °F 86% 30.22 in 2.0 mi North 15.0 mph - 0.01 in   Overcast
2:34 AM 23.0 °F 8.3 °F 19.4 °F 86% 30.23 in 2.0 mi North 19.6 mph - 0.02 in   Overcast
2:45 AM 23.0 °F 9.6 °F 21.2 °F 93% 30.23 in 1.5 mi North 16.1 mph - 0.02 in   Overcast
2:53 AM 23.0 °F 10.1 °F 21.0 °F 92% 30.32 in 1.5 mi North 15.0 mph - 0.02 in   Overcast
3:08 AM 23.0 °F 11.1 °F 21.2 °F 93% 30.22 in 1.5 mi North 12.7 mph - 0.01 in   Overcast
3:53 AM 21.9 °F 6.9 °F 19.0 °F 89% 30.32 in 1.5 mi North 19.6 mph - 0.03 in   Overcast
4:04 AM 21.2 °F 6.0 °F 19.4 °F 93% 30.24 in 1.8 mi North 19.6 mph 27.6 mph N/A   Overcast
4:11 AM 21.2 °F 5.2 °F 19.4 °F 93% 30.24 in 2.5 mi North 21.9 mph 27.6 mph N/A   Overcast
4:27 AM 21.2 °F 6.4 °F 19.4 °F 93% 30.23 in 2.0 mi North 18.4 mph - 0.01 in   Overcast
4:53 AM 21.0 °F 7.1 °F 19.0 °F 92% 30.31 in 2.0 mi North 16.1 mph - 0.01 in   Overcast
5:10 AM 21.2 °F 7.8 °F 19.4 °F 93% 30.22 in 3.0 mi North 15.0 mph - 0.01 in   Overcast
5:37 AM 21.2 °F 7.8 °F 19.4 °F 93% 30.24 in 2.0 mi North 15.0 mph - 0.01 in   Overcast
5:49 AM 21.2 °F 7.8 °F 19.4 °F 93% 30.25 in 3.0 mi North 15.0 mph - 0.02 in   Overcast
5:53 AM 21.0 °F 7.6 °F 19.0 °F 92% 30.36 in 2.0 mi North 15.0 mph - 0.02 in   Overcast
6:01 AM 21.2 °F 7.8 °F 19.4 °F 93% 30.26 in 1.5 mi NNW 15.0 mph - N/A   Overcast
6:42 AM 21.2 °F 8.9 °F 19.4 °F 93% 30.26 in 2.0 mi North 12.7 mph - 0.01 in   Overcast
6:53 AM 21.9 °F 9.8 °F 19.0 °F 89% 30.36 in 3.0 mi North 12.7 mph - 0.01 in   Overcast
7:21 AM 21.2 °F 9.5 °F 19.4 °F 93% 30.26 in 5.0 mi North 11.5 mph - 0.01 in   Overcast
7:30 AM 21.2 °F 9.5 °F 19.4 °F 93% 30.26 in 2.5 mi North 11.5 mph - 0.01 in   Overcast
7:53 AM 21.9 °F 9.2 °F 19.0 °F 89% 30.37 in 1.0 mi North 13.8 mph - 0.01 in   Mist
7:57 AM 21.2 °F 8.9 °F 19.4 °F 93% 30.26 in 0.8 mi North 12.7 mph - N/A   Mist
8:06 AM 21.2 °F 8.3 °F 19.4 °F 93% 30.26 in 1.0 mi North 13.8 mph - 0.01 in   Mist
8:25 AM 23.0 °F 10.6 °F 19.4 °F 86% 30.26 in 2.0 mi North 13.8 mph - 0.02 in   Overcast
8:39 AM 23.0 °F 10.6 °F 19.4 °F 86% 30.25 in 3.0 mi NNW 13.8 mph - 0.02 in   Overcast
8:53 AM 24.1 °F 12.5 °F 19.9 °F 84% 30.35 in 7.0 mi NNW 12.7 mph - 0.02 in   Overcast
9:15 AM 24.8 °F 11.9 °F 19.4 °F 80% 30.25 in 9.0 mi NNW 16.1 mph - N/A   Overcast
9:53 AM 24.1 °F 11.0 °F 19.9 °F 84% 30.36 in 4.0 mi NNW 16.1 mph - N/A   Overcast
10:11 AM 24.8 °F 12.4 °F 21.2 °F 86% 30.25 in 10.0 mi NNW 15.0 mph - N/A   Overcast
10:38 AM 26.6 °F 14.7 °F 21.2 °F 80% 30.26 in 4.0 mi NW 15.0 mph - N/A   Haze
10:53 AM 26.1 °F 13.6 °F 21.9 °F 84% 30.36 in 7.0 mi NNW 16.1 mph - N/A   Overcast
11:45 AM 26.6 °F 15.2 °F 21.2 °F 80% 30.25 in 4.0 mi NNW 13.8 mph - N/A   Haze
11:53 AM 28.0 °F 17.0 °F 21.0 °F 75% 30.34 in 8.0 mi NNW 13.8 mph - N/A   Overcast
12:53 PM 28.9 °F 17.3 °F 19.9 °F 69% 30.31 in 10.0 mi NNW 16.1 mph - 0.00 in   Overcast
1:36 PM 30.2 °F 19.8 °F 21.2 °F 69% 30.21 in 10.0 mi North 13.8 mph - N/A   Overcast
1:51 PM 30.2 °F 19.8 °F 19.4 °F 64% 30.20 in 10.0 mi North 13.8 mph - N/A   Overcast
1:53 PM 30.0 °F 19.5 °F 21.0 °F 69% 30.28 in 10.0 mi North 13.8 mph - N/A   Overcast
2:08 PM 28.4 °F 17.0 °F 23.0 °F 80% 30.21 in 10.0 mi NNW 15.0 mph - N/A   Overcast
2:19 PM 30.2 °F 19.8 °F 21.2 °F 69% 30.20 in 10.0 mi North 13.8 mph - N/A   Overcast
2:53 PM 30.0 °F 19.5 °F 21.0 °F 69% 30.28 in 10.0 mi North 13.8 mph - N/A   Overcast
3:53 PM 32.0 °F 22.5 °F 19.9 °F 61% 30.28 in 10.0 mi NW 12.7 mph - N/A   Overcast
4:53 PM 32.0 °F 23.0 °F 21.0 °F 64% 30.26 in 10.0 mi NW 11.5 mph - N/A   Overcast
5:53 PM 30.9 °F 20.2 °F 21.0 °F 67% 30.27 in 10.0 mi West 15.0 mph - N/A   Scattered Clouds
6:53 PM 28.9 °F 18.2 °F 21.0 °F 72% 30.26 in 10.0 mi West 13.8 mph - N/A   Clear
7:53 PM 26.1 °F 15.0 °F 19.0 °F 75% 30.28 in 10.0 mi West 12.7 mph - N/A   Clear
8:53 PM 25.0 °F 13.6 °F 17.1 °F 72% 30.30 in 10.0 mi West 12.7 mph - N/A   Clear
9:53 PM 23.0 °F 10.1 °F 16.0 °F 74% 30.32 in 10.0 mi West 15.0 mph - N/A   Clear
10:53 PM 21.9 °F 9.8 °F 14.0 °F 72% 30.32 in 10.0 mi West 12.7 mph - N/A   Clear
11:53 PM 21.9 °F 9.8 °F 12.9 °F 68% 30.31 in 10.0 mi West 12.7 mph - N/A   Clear